Wind_Speed
41 41 43 44 43 41 39 38 39 37 35 33 30 30 32 32 30 31 35 37 41 45 45 42 39 36 32 31 31 33 32 30 27 27 26 25 23 22 21 22 24 26 28 29 29 27 26 24 22 21 22 23 24 25 24 23 22 23 23 22 20 18 17 16 16 16 16 17 17 18 19 20 21 22 22 22 22 23 23 24 25 25 26 27 27
48 43 42 43 43 43 41 41 42 43 40 37 32 32 37 41 38 35 34 36 41 46 47 45 42 38 35 34 36 37 35 31 28 28 28 27 25 22 22 22 24 27 28 29 30 30 28 26 23 22 22 23 24 25 25 23 23 23 23 23 22 20 18 17 17 17 17 17 18 18 19 20 21 22 22 23 23 24 24 25 25 25 26 26 27
53 48 45 44 42 41 42 42 44 45 43 39 36 34 35 39 41 38 36 36 39 43 46 48 48 44 40 40 41 40 37 33 29 28 29 28 26 23 22 22 24 27 29 30 31 31 30 28 25 23 22 23 24 25 25 24 23 23 24 24 23 22 19 18 17 18 18 18 19 19 20 20 21 22 22 23 23 24 24 25 25 25 26 27 28
55 51 50 48 44 42 42 43 45 46 44 41 39 38 37 38 39 39 37 36 36 36 39 44 48 46 40 38 39 40 37 33 30 29 28 28 27 25 23 23 25 27 29 30 31 32 32 31 28 25 23 23 24 25 26 25 23 23 24 24 24 23 21 19 18 19 19 19 20 20 20 21 21 22 22 22 23 23 24 24 24 24 25 27 28
58 53 51 50 46 42 43 44 46 47 45 42 40 40 40 38 38 38 37 36 35 35 36 38 42 44 42 37 36 38 37 33 31 30 28 28 29 26 24 24 26 28 29 30 31 32 33 33 31 28 25 24 24 25 26 25 24 23 24 25 25 24 22 20 19 19 20 20 20 21 21 22 22 22 22 22 22 23 23 24 23 24 26 27 28
60 56 54 52 46 43 43 43 43 45 45 43 42 42 41 38 37 38 38 37 37 37 37 35 36 39 42 42 41 40 38 33 31 31 29 29 30 28 25 25 27 29 29 30 31 32 33 34 33 30 26 25 25 25 26 26 24 23 24 25 25 24 23 21 20 21 20 21 21 21 22 23 22 22 22 23 23 23 24 24 24 25 26 28 29
62 59 58 57 51 45 45 43 40 40 42 42 43 44 43 41 39 39 40 40 41 42 39 36 35 33 33 38 43 42 39 35 32 30 29 30 31 28 26 27 28 29 29 29 31 32 33 35 35 32 28 26 26 26 26 26 25 24 24 24 25 25 24 22 22 22 22 21 22 22 23 23 23 23 23 23 23 23 24 24 25 26 27 28 29
65 63 61 61 58 52 49 48 46 43 43 43 43 43 44 44 42 42 43 42 42 44 43 38 36 32 28 31 37 40 39 37 34 31 30 31 32 30 29 29 29 30 30 30 31 32 33 35 36 34 30 27 27 27 27 27 25 24 24 24 25 25 25 24 23 23 23 22 22 23 24 24 24 24 24 24 24 24 25 25 26 27 27 28 29
67 66 63 62 61 57 55 54 54 54 53 52 50 48 46 46 45 45 45 45 44 45 45 41 38 35 31 31 34 37 38 37 35 33 31 31 32 32 30 30 30 31 31 31 31 32 33 35 37 35 31 29 28 27 27 27 26 24 24 24 25 26 25 25 24 24 24 23 23 24 24 25 25 25 25 24 24 25 25 26 26 27 27 28 29
69 68 66 63 60 59 60 60 61 62 62 60 59 56 51 49 49 48 48 48 48 46 45 43 40 37 35 34 34 36 37 36 35 33 29 28 31 31 31 30 31 32 32 32 31 32 33 35 37 36 33 30 29 28 28 27 26 25 24 24 25 26 26 25 24 24 24 24 24 24 25 25 25 25 25 25 25 25 26 26 27 27 28 29 29
72 70 68 65 61 61 62 62 63 65 64 62 61 60 56 53 52 52 51 51 50 49 46 43 40 37 36 35 35 35 36 35 35 33 28 28 30 31 32 32 32 34 34 32 33 33 33 35 36 37 35 32 30 30 29 28 27 25 24 23 24 26 26 26 25 25 25 24 24 24 25 25 25 25 25 25 25 26 26 26 27 27 28 29 30
74 73 70 67 63 63 63 62 62 64 64 63 62 60 58 55 54 54 53 50 49 48 46 43 40 38 37 36 35 35 35 35 36 35 32 31 32 33 35 35 35 35 35 33 34 34 34 35 37 38 36 34 32 31 30 29 27 26 24 23 24 25 27 26 26 25 25 25 24 25 25 25 25 26 25 25 25 25 26 26 27 28 29 30 31
75 74 72 67 64 64 63 61 61 63 64 64 62 60 58 56 55 53 50 47 46 45 44 42 41 40 39 38 37 37 36 35 36 37 36 35 35 36 38 39 37 37 36 35 35 35 34 35 37 38 38 35 33 32 32 30 28 27 25 23 24 25 26 27 26 25 25 25 25 25 24 24 25 26 25 25 25 25 25 26 26 27 29 30 31
75 73 71 68 66 66 63 60 60 62 63 63 62 61 59 56 53 51 48 45 43 42 41 40 40 40 39 38 39 40 38 36 36 37 38 38 38 40 41 41 39 38 37 36 36 36 35 35 37 39 39 37 35 34 33 32 29 27 26 24 24 25 26 27 27 26 26 25 25 25 24 24 25 26 25 25 25 25 25 26 26 27 29 30 32
74 72 70 68 68 69 66 61 61 61 61 60 60 58 58 56 52 50 48 46 43 42 41 41 40 39 39 39 40 40 40 40 39 39 40 40 41 43 43 42 41 40 38 38 37 36 35 36 37 40 40 38 37 35 34 33 31 28 27 25 25 25 26 27 28 28 27 26 25 24 25 25 25 26 25 25 25 25 25 26 27 28 29 30 32
74 72 70 70 71 72 68 64 64 64 61 61 60 58 58 57 53 51 50 48 47 44 43 42 41 41 41 41 40 40 41 43 43 43 43 42 42 45 46 44 43 42 40 39 39 38 37 37 39 41 41 40 38 37 35 34 32 30 28 27 25 25 26 28 29 29 28 27 26 25 25 25 26 25 25 25 26 26 26 28 29 29 29 30 32
73 72 70 71 72 73 70 67 67 67 64 64 62 58 55 53 52 52 52 50 48 45 44 43 42 43 43 44 43 42 43 46 46 45 45 45 44 46 47 46 43 40 39 38 39 40 40 40 42 42 42 41 40 38 37 35 33 31 30 28 26 26 27 29 29 29 29 28 28 26 25 26 26 26 26 26 26 27 28 29 30 29 29 30 32
73 72 71 72 73 72 71 70 69 68 66 66 62 56 52 50 51 53 52 50 48 47 45 44 44 45 45 46 47 46 46 47 48 47 46 46 46 47 48 45 41 38 37 37 38 39 40 41 44 44 42 42 41 39 38 36 34 32 31 29 27 26 28 30 30 30 30 30 29 28 26 26 26 26 26 26 27 28 29 29 30 30 29 30 31
73 73 72 72 72 72 72 71 70 68 67 65 60 55 53 52 53 55 54 52 52 51 50 48 47 47 47 47 48 49 48 47 49 50 49 46 46 48 48 45 41 39 38 38 39 39 38 40 43 43 43 43 42 40 39 37 35 33 32 30 28 28 30 30 29 30 32 31 30 29 28 27 26 26 26 27 27 28 29 30 30 30 29 30 31
72 72 72 72 71 70 70 72 71 69 67 64 57 52 54 56 56 57 57 56 56 57 57 55 52 50 49 49 50 49 48 48 49 50 49 46 46 48 49 47 45 41 39 40 41 40 40 40 42 42 43 44 43 41 40 38 36 34 33 31 30 30 31 30 30 32 33 33 32 31 29 27 26 26 27 28 28 29 29 30 30 30 30 30 31
73 72 72 72 70 68 68 71 72 70 68 65 58 52 53 57 58 58 58 59 58 59 61 60 57 55 52 51 51 49 47 48 48 47 47 47 48 50 50 49 48 46 44 42 42 41 42 44 45 45 45 45 44 42 41 39 37 35 33 32 32 31 31 31 31 33 35 34 33 33 31 29 27 26 27 28 29 29 30 30 30 30 31 31 32
76 74 73 73 71 69 67 68 70 69 69 68 65 60 57 57 58 58 59 60 60 59 59 60 59 58 55 53 53 50 47 47 48 47 48 48 49 51 51 50 51 51 48 46 44 44 46 48 49 49 48 46 44 44 42 39 38 36 34 34 33 32 31 32 33 34 36 35 34 34 33 31 28 26 27 28 29 30 30 30 31 31 32 32 32
78 76 75 74 72 70 69 68 68 68 68 69 68 65 61 59 59 59 58 59 60 60 60 60 60 61 58 55 55 53 50 49 49 49 50 50 52 53 53 52 54 54 50 47 47 47 48 49 50 51 50 47 45 44 43 40 38 36 35 35 34 33 32 33 34 36 36 36 35 35 34 32 29 28 28 29 29 30 30 31 32 32 33 33 33
75 75 75 74 72 70 70 70 70 69 69 69 67 64 62 60 59 59 58 58 58 58 58 58 59 60 59 56 56 55 54 53 52 51 52 53 54 55 55 55 56 56 54 52 51 51 50 50 51 53 52 48 45 44 44 42 39 37 36 36 35 33 33 34 36 37 37 37 37 36 36 34 32 30 29 29 30 30 31 31 32 33 34 34 35
69 71 72 72 70 68 68 68 69 69 69 69 68 65 63 60 58 58 56 54 53 54 55 56 58 59 58 56 55 54 54 54 55 55 55 56 56 57 58 57 58 58 57 56 55 55 54 52 52 54 52 48 45 45 44 43 40 39 38 37 35 34 34 35 37 37 37 38 38 38 37 36 34 32 31 31 31 31 31 32 33 34 35 35 36
65 66 68 68 67 66 65 65 66 67 68 68 68 66 63 61 59 58 56 52 51 53 56 58 59 59 58 56 54 52 52 53 54 55 56 57 59 60 60 60 60 60 59 57 56 57 56 54 53 52 49 47 46 45 44 43 42 39 38 36 35 34 35 36 37 37 37 38 39 39 38 37 35 34 33 32 32 32 33 33 34 35 36 36 37
63 63 64 64 64 64 63 63 64 65 66 67 68 66 64 62 61 60 57 53 52 55 56 58 59 59 57 56 54 52 51 51 52 53 54 55 58 60 61 62 62 61 60 59 57 57 56 55 52 50 48 47 47 45 44 43 42 40 38 36 35 35 36 36 37 37 38 39 40 40 39 38 36 36 35 34 34 34 34 35 36 36 37 37 38
61 60 61 61 62 62 62 63 64 64 65 66 66 64 63 63 63 63 59 55 54 55 55 54 55 56 56 55 54 52 51 51 51 51 52 54 57 59 61 61 62 61 60 59 58 56 55 53 50 49 49 48 46 45 43 43 43 43 40 37 35 35 36 36 36 36 38 40 41 41 40 39 38 37 37 36 36 36 36 37 38 38 38 39 39
58 59 59 60 60 60 61 62 63 64 64 65 64 63 63 64 65 65 63 60 58 58 58 55 53 54 55 55 54 53 51 49 48 49 52 54 56 57 58 59 61 61 60 59 57 56 54 51 49 50 50 49 47 45 42 42 45 45 42 38 36 36 36 36 36 36 38 41 41 41 41 40 39 39 38 38 38 38 38 38 39 40 40 40 41
56 57 59 59 60 60 61 62 63 64 63 63 62 61 62 65 66 66 66 64 62 62 63 63 60 56 55 55 54 53 51 49 49 51 53 54 54 54 55 57 59 59 58 57 55 54 52 51 49 49 49 48 47 46 43 42 45 46 45 42 40 39 39 38 37 37 39 41 41 41 41 41 40 40 40 41 41 40 39 40 41 41 42 42 43
53 55 57 58 59 60 62 63 63 63 61 59 59 60 62 64 64 64 64 64 63 64 66 65 62 57 55 54 54 53 51 51 51 52 53 54 54 55 55 56 57 58 58 56 55 52 51 49 48 47 48 48 47 46 44 43 43 43 44 45 45 43 42 41 40 40 41 42 42 42 41 41 41 41 42 42 42 42 41 41 42 42 43 43 44
48 49 51 53 55 58 60 62 61 60 58 56 57 59 61 62 62 62 61 61 62 64 64 62 58 56 55 54 53 53 52 52 52 52 53 55 55 54 54 55 56 57 57 56 55 52 49 47 46 46 47 47 46 45 45 43 42 41 42 45 45 44 43 43 43 43 42 42 42 42 42 42 42 43 44 44 43 43 43 43 43 44 44 44 45
46 48 49 51 54 56 58 58 57 55 54 54 55 58 61 61 61 60 60 59 60 60 60 58 55 54 54 53 53 53 53 53 53 52 53 54 54 54 54 54 56 57 57 56 55 52 49 46 45 46 47 48 47 46 45 44 43 42 42 43 44 44 44 45 47 46 44 43 43 43 44 43 43 43 44 45 45 45 45 45 45 46 46 46 46
47 49 51 53 54 55 55 54 53 51 51 52 54 57 60 62 62 61 60 59 58 58 56 54 52 52 53 53 54 54 54 54 54 53 53 54 55 54 53 53 55 56 56 56 55 53 50 48 46 45 47 49 48 47 46 46 45 44 44 43 44 44 45 47 48 47 46 45 44 44 44 43 42 44 45 46 46 46 46 46 47 47 47 48 48
45 48 50 52 53 53 52 51 50 49 49 51 54 56 59 62 63 63 61 59 57 55 53 50 50 51 53 54 55 55 55 54 53 53 54 55 56 54 52 53 54 55 55 56 55 53 50 48 46 45 47 49 49 49 48 47 47 47 45 45 45 46 47 49 49 48 48 47 46 45 44 42 42 44 47 47 47 47 48 48 49 49 49 49 50
42 45 47 49 50 50 49 48 47 45 46 49 52 56 59 61 61 60 58 56 54 52 50 48 49 51 53 55 55 55 53 53 53 55 56 57 56 54 52 52 53 54 55 56 54 51 49 47 45 46 48 49 50 49 48 47 47 47 46 46 47 48 49 50 50 50 50 49 47 46 45 43 42 45 49 50 51 51 51 50 50 50 50 50 51
40 42 44 45 45 46 45 44 42 41 42 45 49 53 56 58 57 55 53 52 51 49 47 47 49 52 54 56 55 53 52 53 55 58 58 56 54 52 52 52 53 55 55 54 51 48 46 45 45 46 48 50 50 49 48 47 47 46 45 46 48 50 51 52 51 50 50 49 48 47 46 44 44 46 49 51 54 56 57 55 53 53 52 52 53
33 35 37 39 39 39 38 37 36 35 37 40 45 48 51 52 51 50 50 49 48 46 46 48 51 53 55 56 54 52 53 54 57 58 57 55 53 52 51 50 51 51 51 51 49 46 44 44 45 46 48 49 48 47 47 47 47 46 46 47 49 50 51 52 51 50 49 50 49 48 47 47 47 47 47 49 54 60 62 61 59 57 56 56 56
23 26 28 30 30 30 30 29 29 30 32 36 39 42 43 45 45 46 46 46 45 46 48 50 52 54 56 55 53 52 53 55 56 56 56 55 54 53 52 52 52 50 47 46 47 47 46 45 46 46 48 48 47 46 46 46 46 46 47 48 50 51 50 50 49 49 49 50 50 49 50 50 50 49 49 51 55 60 63 64 63 62 61 61 61
14 18 20 22 22 22 22 23 24 26 28 31 34 36 38 40 42 43 44 45 46 48 50 51 53 55 56 54 52 52 54 56 56 55 56 55 54 52 50 50 50 51 50 49 49 49 48 47 47 48 48 48 47 47 47 46 46 47 47 47 49 51 50 49 49 49 50 51 52 52 52 52 52 52 52 53 55 57 61 63 64 65 66 66 66
11 13 15 17 19 19 20 22 24 26 28 30 33 35 37 40 42 44 45 47 48 50 51 52 53 54 54 52 51 53 55 55 54 54 55 55 52 50 47 44 43 46 49 51 50 49 48 47 48 48 47 46 46 47 47 47 47 48 47 47 50 52 51 50 50 50 51 53 54 54 54 53 54 55 55 55 55 58 60 62 64 67 69 68 68
8 10 12 15 17 19 20 22 24 26 29 32 34 37 39 40 42 44 46 47 49 50 50 51 52 52 51 50 50 52 53 53 52 52 53 53 52 51 49 47 45 46 46 46 45 46 46 46 46 46 46 45 45 46 47 48 48 47 47 49 51 52 52 52 52 53 54 57 59 59 58 56 56 57 58 58 58 59 60 62 65 68 70 70 69
9 10 12 16 17 17 18 21 22 25 28 31 33 35 38 40 42 44 46 47 48 49 50 50 50 49 48 48 49 50 51 51 51 51 52 52 53 53 53 52 51 50 48 46 45 45 45 44 43 45 46 47 47 47 48 50 50 49 48 49 50 51 53 54 54 56 58 60 61 60 58 56 56 57 59 59 60 60 61 63 65 67 69 70 70
14 14 15 18 18 18 19 21 23 25 28 30 31 33 35 37 40 43 45 47 48 48 49 49 48 47 47 47 48 50 50 51 52 53 53 53 54 54 54 53 52 51 49 47 46 45 45 45 44 45 47 49 49 49 49 49 48 49 49 49 49 50 51 51 53 58 61 60 59 59 58 55 54 55 58 61 63 63 64 65 66 67 68 68 68
16 17 18 19 20 21 21 22 24 25 26 27 30 32 34 35 37 39 41 43 46 47 47 47 46 46 47 48 48 49 50 51 51 52 53 54 54 54 54 54 52 50 49 47 46 45 46 47 47 48 49 50 50 48 46 46 47 48 49 50 51 52 50 49 52 58 59 56 55 57 58 55 54 57 63 66 67 67 67 67 67 67 67 67 65
15 17 18 20 21 20 20 22 25 26 26 27 28 30 32 33 35 36 36 38 40 43 44 45 46 47 47 48 48 49 50 51 51 52 53 54 54 54 54 53 52 51 49 48 47 46 46 48 49 51 51 51 50 48 46 45 46 47 48 49 51 53 54 53 54 55 55 56 56 56 56 56 57 61 66 68 66 65 66 66 65 64 64 63 61
11 13 14 16 18 18 18 19 21 25 28 29 30 29 30 31 33 35 37 38 39 41 43 45 46 47 47 48 49 49 50 51 52 53 54 55 55 54 53 53 52 51 50 49 48 47 47 48 48 48 48 48 48 48 48 47 47 48 49 50 51 51 51 52 51 51 54 58 60 58 58 60 62 64 66 65 62 62 62 62 61 61 61 58 55
11 11 12 13 14 15 16 16 18 20 24 27 29 31 32 33 34 36 38 40 41 42 43 44 45 46 47 49 50 51 52 52 52 52 53 54 54 53 52 51 51 51 50 50 49 48 47 46 46 45 45 45 46 47 47 48 48 49 50 51 51 50 49 50 51 51 53 55 57 58 59 62 63 64 65 64 61 60 60 59 58 57 56 54 51
12 12 13 13 14 14 15 15 17 18 20 23 25 28 31 34 36 37 39 40 42 44 45 46 46 47 47 48 48 49 49 50 51 51 52 53 53 52 50 49 48 48 48 48 48 47 46 46 46 45 45 45 45 45 45 46 47 47 48 49 50 50 50 51 52 52 52 52 54 54 55 60 64 64 63 61 61 60 59 56 54 53 51 50 49
14 14 15 15 16 16 16 16 17 18 19 20 22 24 26 28 31 33 34 36 37 39 40 42 43 44 45 45 45 45 45 45 46 47 48 48 48 47 47 46 46 46 46 46 46 46 46 47 47 46 46 46 45 46 46 46 47 47 48 48 49 50 50 51 53 53 53 53 51 48 48 55 63 63 60 59 59 57 54 52 51 49 48 48 47
15 16 16 17 17 18 19 19 20 20 21 21 22 23 24 26 27 29 30 32 33 34 36 37 38 40 41 42 42 42 42 43 43 44 45 45 46 46 45 45 45 45 45 46 47 48 48 48 47 47 47 48 48 48 49 48 48 49 49 50 50 51 52 53 54 54 53 51 48 43 43 50 58 60 56 56 56 53 51 51 50 49 48 47 45
Wind_Direction
221 220 222 225 229 231 229 229 230 230 228 227 226 226 227 230 232 233 235 238 237 227 216 212 213 215 219 226 233 237 240 244 250 256 259 259 264 273 281 288 294 298 302 305 309 314 318 321 322 318 313 311 310 309 309 311 314 313 309 307 307 308 313 318 323 325 324 322 322 322 322 321 320 319 319 321 322 323 323 322 322 321 321 321 320
228 226 226 228 231 233 230 227 228 230 230 230 230 226 225 228 234 236 235 239 240 234 225 221 218 214 214 221 229 234 236 241 247 254 258 257 259 267 277 286 292 296 300 303 306 310 314 318 320 316 312 309 308 307 307 309 312 313 310 307 305 304 307 312 318 321 321 321 321 322 321 319 318 318 319 321 322 322 323 322 322 322 322 322 321
233 231 230 232 234 234 231 226 225 228 229 229 227 225 223 225 231 235 234 235 237 236 233 230 226 220 216 219 224 229 233 237 242 250 254 253 254 261 271 282 289 293 296 299 303 307 310 313 317 315 311 309 307 306 306 307 310 312 311 308 305 303 303 307 312 315 316 318 319 320 319 317 316 317 318 319 320 321 321 321 322 323 323 322 321
236 235 234 235 236 235 233 229 226 225 226 227 226 225 226 225 226 230 231 232 234 236 237 236 233 230 230 230 231 231 231 232 236 245 250 248 249 256 266 276 284 288 292 296 299 303 306 309 313 314 311 308 307 305 305 305 307 310 311 309 306 303 302 303 306 309 311 313 315 316 316 316 315 315 316 316 317 319 320 321 322 323 323 321 320
236 235 234 234 233 234 233 231 228 226 224 226 227 227 227 226 226 228 229 232 234 237 240 241 239 239 242 246 243 239 237 233 233 240 245 245 246 252 261 271 278 282 287 292 295 299 302 305 308 311 310 307 306 305 304 304 305 308 310 309 306 303 302 301 301 303 305 308 310 312 314 314 314 313 313 314 316 319 320 320 322 323 322 321 321
235 233 231 230 228 228 229 228 229 228 225 225 227 228 227 225 225 227 230 233 237 240 241 242 243 245 247 248 246 243 242 239 236 238 242 245 246 249 257 266 273 277 281 286 291 295 299 301 305 308 309 307 305 304 303 303 304 306 308 309 306 303 301 299 298 298 300 303 306 309 312 313 313 313 313 313 317 320 320 320 322 323 323 322 323
234 232 230 229 227 224 224 224 225 228 229 228 228 228 226 224 223 225 228 231 235 241 244 243 244 246 250 250 245 239 238 239 242 243 243 244 244 246 254 262 268 273 276 280 286 291 295 298 301 305 307 307 304 303 302 302 303 304 306 307 306 303 301 299 297 296 297 300 303 307 310 311 312 312 312 314 318 320 320 320 323 324 324 324 324
232 232 230 228 227 225 224 224 223 226 231 233 233 232 229 228 226 225 226 227 230 237 242 244 243 244 249 249 239 230 231 237 243 245 243 243 244 245 250 257 263 269 272 276 281 287 291 295 298 301 305 305 302 301 301 302 303 303 303 305 305 303 301 298 296 295 296 298 301 304 308 309 311 311 312 315 318 319 319 320 323 325 324 324 325
231 231 230 229 228 227 226 227 228 230 234 236 237 236 234 234 232 228 226 226 228 232 238 241 242 242 245 243 234 228 230 235 240 243 242 243 245 247 248 254 261 265 268 272 277 283 288 291 294 297 302 303 301 299 300 301 302 301 300 303 304 303 300 298 296 294 294 296 299 302 305 308 310 312 312 315 318 318 319 320 322 324 323 323 324
230 231 230 229 229 230 230 230 232 234 235 235 235 235 233 233 234 231 227 226 228 231 236 239 239 238 239 239 236 235 233 234 237 241 243 245 249 250 250 254 260 264 265 269 273 279 284 288 291 294 298 301 299 298 298 300 301 300 298 300 302 302 300 298 296 294 292 294 297 299 303 307 310 311 312 314 316 316 318 320 321 322 322 322 323
229 231 230 228 230 233 232 231 234 236 235 233 233 232 230 229 230 231 229 228 228 230 233 235 236 236 236 236 237 238 237 235 236 238 242 247 251 253 253 255 260 263 263 266 270 275 280 284 288 291 295 299 298 296 296 298 299 299 297 297 299 300 299 297 295 293 291 292 295 298 302 306 309 310 310 312 314 314 316 319 319 320 321 322 323
229 229 229 229 231 232 231 230 233 235 232 227 226 225 224 223 224 227 230 230 229 228 230 232 235 237 238 239 240 241 241 239 238 238 241 246 250 253 254 255 258 260 261 264 267 272 277 281 285 288 292 296 297 294 294 295 298 298 295 294 295 297 298 297 294 292 290 290 293 297 301 306 307 307 308 310 311 312 315 317 318 320 322 323 323
228 228 229 230 231 230 228 228 231 231 227 222 220 220 219 218 219 222 226 227 227 228 229 231 235 238 239 241 243 246 246 245 243 242 241 244 249 252 253 254 256 258 259 262 265 269 274 279 282 286 290 294 295 292 291 293 296 297 295 292 292 294 296 296 293 291 289 289 292 296 301 305 305 304 305 307 308 310 313 315 317 319 321 322 321
227 228 228 229 229 226 225 227 229 231 230 224 218 218 218 215 215 218 220 223 226 228 230 232 235 238 241 242 243 246 248 249 249 247 243 245 251 253 253 253 254 256 258 260 263 267 271 276 280 283 287 292 293 291 290 291 294 296 294 291 289 291 293 294 292 290 288 289 291 295 299 302 302 302 303 304 304 307 310 312 314 317 319 320 319
226 227 226 226 225 223 221 223 225 228 230 225 219 221 221 215 212 215 218 223 228 230 232 234 237 240 242 244 245 245 247 249 249 246 244 247 253 254 252 251 252 254 256 259 262 265 269 274 278 281 285 289 291 289 288 289 292 295 294 291 288 288 291 292 290 289 288 288 289 292 296 299 300 300 300 300 301 303 306 308 311 314 317 317 317
224 224 223 221 222 221 221 221 221 222 224 222 220 225 225 217 214 217 220 224 228 229 231 234 237 241 242 244 246 247 246 248 248 246 247 250 254 253 251 249 251 253 255 258 260 264 269 273 276 280 284 288 289 288 286 288 291 293 293 291 288 286 288 289 288 288 288 288 287 289 293 296 297 297 296 296 298 300 303 306 309 312 314 316 317
220 220 219 218 219 221 221 220 220 222 222 220 219 224 227 223 222 223 224 228 229 229 232 235 238 241 242 243 245 246 246 246 247 248 248 250 252 251 249 250 254 257 258 259 262 264 269 273 276 278 282 286 287 286 285 286 289 292 292 291 289 286 285 285 287 287 288 286 285 286 290 293 294 294 294 294 297 299 302 305 308 311 313 316 318
218 216 215 215 217 219 220 219 220 222 221 218 217 222 226 229 230 228 229 232 232 231 233 237 239 241 242 243 243 244 245 244 243 246 248 250 250 248 248 253 258 259 259 262 265 267 269 273 275 276 280 284 285 285 284 285 288 290 291 291 290 286 281 282 285 287 286 285 284 284 287 290 292 293 294 295 297 299 302 305 307 309 312 315 318
218 216 214 214 215 217 218 218 219 221 219 216 217 223 228 231 232 230 230 231 230 230 233 237 240 241 241 242 242 244 245 241 239 243 248 248 246 245 247 252 257 258 259 262 265 268 270 273 275 277 280 283 284 283 282 283 287 289 290 291 290 284 279 281 284 286 285 284 283 283 284 288 292 294 294 295 296 298 301 303 306 308 311 314 316
220 218 216 216 216 216 217 217 217 218 217 217 220 225 229 230 230 230 230 230 228 229 232 237 241 241 239 239 240 243 243 239 237 240 243 243 243 244 247 251 253 255 259 261 263 267 271 274 276 279 281 282 283 282 281 282 286 288 290 292 289 284 280 281 282 283 283 284 283 283 284 288 291 293 293 294 295 297 299 302 304 306 309 312 314
222 220 219 219 219 218 218 219 218 218 218 220 223 226 227 228 229 230 232 232 230 231 232 236 239 240 237 236 237 239 239 236 233 234 236 238 241 244 247 251 252 253 255 258 262 266 271 274 277 280 281 281 282 280 280 281 284 287 290 290 288 285 282 280 279 281 282 283 283 284 284 286 289 291 291 292 293 294 297 300 302 304 307 309 312
224 223 222 223 223 223 222 222 223 223 222 224 227 229 229 229 229 230 232 234 234 234 234 234 236 237 236 235 234 234 234 233 231 231 233 236 240 243 246 250 252 253 255 258 262 266 270 272 275 277 278 279 279 278 278 280 283 286 288 288 287 286 283 278 277 278 280 282 283 284 283 284 286 288 289 290 291 293 295 298 300 302 304 306 309
226 225 225 225 226 228 227 227 227 228 229 229 230 232 231 229 229 230 233 235 236 237 237 236 235 234 234 234 234 233 232 232 232 233 235 237 240 243 246 248 250 253 256 259 261 264 267 270 272 274 275 276 276 276 276 278 281 283 285 285 285 285 282 277 275 276 278 281 283 282 282 283 284 285 286 288 289 291 294 297 299 301 302 304 306
225 225 226 226 227 228 229 230 230 231 232 232 231 231 231 230 230 231 234 236 237 238 238 235 232 231 232 234 234 234 234 234 234 236 238 240 242 244 246 247 249 252 255 258 261 263 265 268 270 270 272 274 274 273 274 276 279 281 282 282 283 284 282 276 273 274 277 280 282 282 283 284 283 283 285 286 288 291 294 296 298 300 302 304 306
225 225 225 226 226 226 228 230 231 232 233 233 232 231 231 230 230 231 232 234 235 235 233 230 228 229 232 233 234 236 236 237 237 239 241 243 245 246 246 247 249 252 254 258 261 263 265 265 266 267 270 272 272 271 273 275 277 277 278 280 283 285 282 276 273 274 276 278 280 282 283 283 284 283 283 285 287 290 292 294 297 299 301 304 306
224 225 226 226 226 226 226 228 230 232 233 233 232 232 231 229 229 229 229 232 234 232 229 227 227 229 232 233 234 236 237 239 240 241 242 244 246 247 248 249 250 253 255 257 260 262 264 264 264 266 269 269 268 269 271 274 275 275 276 279 282 283 281 276 273 274 276 278 279 281 282 284 284 283 282 284 286 288 290 292 295 298 301 303 306
224 225 226 228 229 228 227 227 229 232 233 234 233 232 230 229 227 226 227 229 230 228 226 227 229 232 233 234 235 236 237 239 240 241 243 244 245 247 249 251 252 254 256 257 258 259 260 261 262 264 265 266 267 268 271 273 274 273 275 278 282 283 282 279 276 275 276 277 278 279 281 284 284 283 283 284 285 286 289 291 293 296 299 302 304
225 226 227 228 231 232 232 230 230 231 233 234 234 231 229 228 226 225 225 227 226 224 225 228 232 235 235 236 237 237 237 239 241 242 244 244 245 247 250 252 253 254 255 255 256 256 258 260 261 261 262 264 267 269 271 273 273 272 274 279 283 285 285 282 278 277 276 277 278 279 281 282 283 284 285 285 285 286 288 290 292 294 297 300 302
225 226 228 229 231 234 235 236 235 234 234 234 234 232 229 227 226 225 225 226 226 226 228 231 236 240 239 237 238 239 238 240 242 243 244 244 245 246 248 250 252 253 254 255 255 256 257 260 261 261 261 262 265 269 273 275 274 271 272 278 283 286 287 284 280 277 277 277 278 280 280 281 282 284 285 285 285 286 288 289 290 293 295 297 300
226 227 229 230 232 234 237 238 238 236 234 233 233 232 230 228 227 227 228 229 230 232 235 237 240 243 241 238 239 240 239 240 241 242 243 245 245 246 247 249 251 252 254 255 256 257 258 260 261 262 263 263 266 270 273 274 272 269 268 272 280 286 288 286 282 277 276 277 279 280 281 282 282 282 283 284 285 287 288 289 290 292 293 296 298
226 228 230 232 234 236 238 239 239 237 235 233 232 231 229 228 228 228 230 232 233 235 237 239 240 241 239 238 239 239 239 239 240 241 244 245 246 246 247 249 251 252 252 254 255 256 258 259 260 262 264 265 268 271 271 273 275 272 268 269 275 282 287 287 283 278 275 276 278 281 282 282 281 281 281 283 285 287 288 289 290 292 293 294 296
226 227 229 231 233 235 237 238 239 238 236 234 231 229 228 227 228 229 231 232 233 235 237 238 238 238 238 237 238 239 239 240 241 242 244 245 246 247 248 250 251 252 251 252 253 254 256 258 260 262 264 266 268 269 270 272 275 275 272 270 273 278 284 285 282 278 276 277 278 280 281 281 281 281 282 283 285 286 287 288 289 290 292 293 294
224 225 226 228 230 232 234 236 237 238 236 234 231 228 227 226 228 229 230 231 233 235 237 237 237 237 237 237 238 239 240 240 241 243 244 245 246 247 248 250 251 252 252 252 253 254 257 259 260 262 265 267 268 268 269 271 272 272 272 271 272 276 281 282 281 279 279 278 277 279 280 281 282 283 283 285 285 285 286 287 287 288 290 291 292
224 226 228 229 230 231 233 235 236 236 235 233 230 227 227 227 228 229 230 232 235 237 238 238 238 238 237 237 237 238 239 240 241 243 244 244 244 245 247 250 252 253 253 254 254 256 257 258 259 262 264 266 267 268 269 270 269 269 270 270 271 274 279 282 282 281 280 278 277 278 281 283 284 285 285 286 287 286 285 285 285 286 288 289 290
226 228 230 232 233 234 235 236 236 235 233 231 229 227 227 228 229 230 233 235 238 239 239 239 238 237 236 237 237 238 238 240 242 243 243 243 244 245 247 250 253 255 254 254 254 255 256 257 259 262 263 265 266 267 268 269 271 271 269 267 268 272 277 282 283 281 280 279 278 279 280 282 283 283 283 285 285 285 285 285 285 286 287 287 288
228 231 233 234 236 237 238 238 238 236 234 231 229 227 227 228 230 232 234 237 238 238 238 238 237 236 236 237 237 238 239 240 241 242 242 242 244 246 247 250 253 256 256 254 253 253 255 257 259 262 263 264 265 266 267 269 271 270 266 264 265 270 276 281 282 280 279 279 279 279 280 282 282 281 281 282 283 283 284 284 284 285 285 286 288
225 228 231 233 235 237 238 239 240 238 235 231 228 227 227 228 230 232 233 234 235 236 236 236 235 235 236 237 238 239 240 240 241 242 242 243 245 247 249 250 253 255 255 252 251 253 256 258 260 262 263 264 265 266 267 269 270 268 264 262 264 269 275 278 279 278 278 279 279 280 281 281 280 279 279 280 280 281 281 281 281 282 283 284 286
220 223 225 228 231 232 233 234 234 233 231 228 226 226 226 227 228 229 230 231 232 232 232 232 231 233 235 236 237 238 239 240 241 243 244 246 246 247 249 252 255 257 256 253 252 256 259 259 260 262 263 264 265 266 268 269 268 266 265 264 265 270 275 277 277 277 277 278 279 280 280 280 279 279 279 280 281 281 280 279 279 279 281 282 284
218 219 219 222 225 226 227 227 226 224 222 221 222 223 224 226 227 228 230 231 231 231 230 230 229 231 233 235 236 237 238 239 241 244 246 247 247 248 251 254 258 261 261 258 257 260 261 260 261 264 266 265 266 267 268 268 266 265 265 265 266 271 277 278 278 277 277 277 278 279 279 279 280 280 279 279 280 280 280 280 280 281 282 283 284
223 219 215 215 216 217 219 220 220 219 219 219 221 223 225 226 228 229 230 231 232 231 231 230 229 231 233 234 234 235 236 238 239 242 244 245 247 249 253 257 259 261 261 260 259 260 261 262 265 267 268 267 268 269 269 268 268 268 267 265 266 271 276 278 278 277 276 276 277 277 276 277 277 277 276 275 275 276 278 281 282 283 282 282 283
223 219 218 217 214 214 216 217 218 220 221 222 224 225 226 228 229 230 231 232 232 232 232 231 231 232 233 234 234 234 236 237 239 241 243 245 248 251 254 259 265 267 264 260 259 260 263 266 267 267 266 266 268 268 267 266 269 271 270 268 269 271 275 277 278 278 278 279 278 276 275 275 275 274 274 274 274 275 277 280 282 281 280 280 281
217 215 221 219 214 214 219 221 223 226 228 229 230 231 232 232 233 233 234 234 235 235 235 235 235 236 236 236 236 237 238 240 241 244 246 249 252 255 257 260 268 273 270 264 261 263 266 268 268 266 265 265 267 268 268 268 270 272 272 272 273 274 275 278 280 281 282 282 280 277 275 275 273 271 270 271 272 273 274 276 277 278 278 279 280
186 200 219 217 209 209 215 219 223 227 227 228 230 232 233 235 236 236 237 237 238 238 238 238 239 240 240 240 240 240 241 241 242 244 247 249 253 257 260 263 267 271 270 267 266 267 268 267 266 265 266 267 267 268 269 270 270 270 272 274 274 274 276 279 281 283 282 279 276 275 274 273 270 269 269 269 269 270 271 273 275 277 278 279 279
180 194 214 219 216 214 214 215 221 227 229 230 232 233 234 235 237 238 239 239 239 240 240 240 241 242 242 242 242 242 242 243 243 244 246 247 250 255 259 262 266 268 268 267 267 267 268 267 266 266 267 268 269 269 269 268 267 267 269 271 272 273 276 279 281 280 279 276 273 272 272 269 268 269 270 270 270 272 274 275 276 277 278 278 277
201 205 215 222 226 226 223 220 222 226 229 232 235 237 237 238 239 241 242 242 242 242 242 242 242 242 243 243 243 243 244 245 246 247 248 249 252 256 258 261 264 267 267 266 266 266 266 268 268 268 268 268 267 265 264 265 264 264 267 270 271 271 271 272 272 271 271 270 270 269 269 269 270 270 270 270 271 273 274 274 274 275 275 275 275
219 216 218 220 222 224 224 224 226 226 226 227 230 234 236 238 240 241 242 242 242 243 242 242 242 242 243 243 244 246 247 248 249 250 251 253 255 258 260 262 264 266 266 265 266 266 267 269 271 270 268 266 263 261 261 263 264 265 268 272 274 272 270 269 268 268 269 270 270 268 265 264 264 263 263 264 266 268 269 269 271 272 274 275 278
232 230 229 227 224 221 218 219 223 226 227 229 232 235 236 238 240 241 241 240 241 242 243 243 243 244 245 246 248 250 251 252 253 254 255 256 258 260 261 263 265 266 266 266 266 267 268 269 269 268 265 263 260 260 262 265 266 268 270 273 275 275 274 272 273 275 277 278 276 271 263 259 258 257 258 260 262 265 267 269 271 273 275 278 281
236 237 238 239 237 235 233 231 230 229 229 230 234 236 235 236 238 241 242 242 242 243 245 246 247 248 250 251 252 253 254 255 255 256 257 258 259 261 261 262 263 263 265 266 267 267 267 266 266 264 263 262 261 262 265 266 268 270 271 272 274 275 275 273 273 276 278 279 279 274 267 262 260 259 259 260 264 267 268 270 272 275 277 279 282
238 238 239 240 240 240 240 239 239 238 237 237 238 240 240 240 241 243 245 246 246 247 248 249 250 251 253 254 254 253 253 254 255 257 258 259 259 260 260 260 260 261 263 265 266 265 265 265 265 265 265 266 266 267 268 269 271 271 272 271 272 273 274 274 274 276 276 278 280 279 272 264 260 259 260 261 264 266 268 270 274 277 278 280 282
242 241 241 241 242 242 241 240 239 239 240 240 241 242 244 244 245 246 247 248 249 250 251 251 252 253 254 255 255 255 254 255 256 257 258 259 260 260 260 260 260 261 262 263 264 265 266 267 267 267 267 268 269 269 270 271 271 271 271 271 272 272 273 273 274 275 276 277 278 280 275 265 258 257 259 261 263 265 269 273 276 278 279 280 282
252 248 245 243 242 242 243 243 242 242 241 241 242 242 243 245 246 247 248 249 249 250 250 251 251 252 253 254 255 256 256 256 257 258 259 260 261 262 262 262 263 263 263 263 263 264 266 267 267 267 266 267 269 270 270 271 271 271 271 272 272 272 273 273 274 275 277 276 276 278 278 269 261 258 260 262 263 265 271 275 277 278 279 280 281
Height
5771 5773 5775 5777 5779 5782 5786 5789 5791 5793 5795 5798 5801 5803 5805 5806 5809 5811 5813 5815 5817 5819 5821 5823 5825 5829 5832 5835 5836 5837 5839 5840 5841 5842 5843 5843 5843 5842 5842 5841 5840 5840 5839 5838 5837 5836 5836 5835 5834 5832 5830 5829 5828 5826 5825 5824 5822 5821 5820 5819 5818 5817 5815 5814 5812 5811 5810 5809 5808 5806 5805 5804 5803 5802 5801 5800 5799 5798 5797 5796 5795 5794 5792 5791 5789
5766 5770 5772 5774 5776 5778 5781 5783 5786 5788 5791 5794 5797 5800 5802 5803 5804 5807 5810 5812 5813 5815 5817 5819 5821 5824 5827 5829 5831 5833 5835 5837 5838 5839 5840 5840 5840 5840 5839 5839 5838 5837 5836 5835 5834 5833 5833 5832 5832 5830 5828 5827 5826 5824 5823 5822 5821 5819 5818 5817 5816 5815 5813 5812 5810 5809 5808 5807 5806 5804 5803 5802 5801 5800 5799 5798 5797 5796 5795 5794 5793 5792 5790 5788 5786
5761 5765 5768 5771 5773 5774 5776 5778 5781 5783 5787 5790 5793 5796 5799 5800 5801 5803 5806 5808 5810 5812 5814 5815 5817 5818 5820 5823 5825 5827 5830 5833 5834 5835 5836 5837 5837 5836 5836 5836 5836 5835 5834 5833 5832 5831 5830 5830 5829 5828 5827 5825 5824 5822 5821 5820 5818 5817 5816 5815 5814 5813 5812 5810 5808 5807 5806 5805 5804 5803 5802 5801 5799 5798 5797 5797 5796 5795 5794 5792 5791 5789 5788 5786 5784
5754 5759 5763 5767 5769 5770 5772 5774 5777 5779 5782 5786 5789 5791 5794 5796 5798 5799 5802 5804 5805 5808 5810 5811 5813 5816 5818 5820 5821 5823 5826 5828 5829 5831 5832 5833 5833 5833 5833 5834 5833 5833 5832 5831 5829 5828 5827 5827 5827 5826 5825 5823 5821 5820 5819 5818 5816 5815 5814 5813 5812 5811 5810 5808 5807 5805 5804 5803 5802 5801 5800 5799 5798 5797 5796 5795 5794 5793 5792 5790 5789 5788 5786 5784 5782
5748 5754 5758 5762 5764 5766 5768 5770 5773 5776 5779 5782 5785 5787 5789 5791 5793 5795 5798 5800 5801 5803 5805 5808 5811 5814 5816 5818 5819 5820 5822 5824 5825 5826 5828 5829 5829 5829 5830 5830 5830 5830 5829 5828 5827 5826 5825 5824 5823 5823 5822 5821 5819 5818 5816 5815 5814 5813 5812 5811 5810 5809 5808 5806 5805 5803 5802 5801 5800 5799 5797 5796 5795 5795 5794 5793 5792 5791 5790 5788 5787 5786 5784 5782 5780
5741 5747 5752 5756 5759 5762 5764 5767 5770 5773 5776 5778 5780 5782 5784 5787 5789 5791 5794 5796 5798 5799 5801 5804 5807 5810 5812 5814 5815 5816 5818 5820 5821 5822 5824 5825 5825 5825 5826 5826 5827 5827 5827 5826 5824 5823 5822 5821 5820 5820 5820 5818 5817 5815 5814 5813 5812 5811 5810 5809 5808 5807 5805 5804 5802 5801 5800 5799 5797 5796 5795 5794 5793 5792 5791 5790 5790 5789 5787 5786 5785 5783 5781 5779 5777
5734 5739 5744 5749 5754 5757 5760 5763 5767 5770 5773 5775 5776 5778 5780 5783 5785 5788 5790 5792 5794 5796 5797 5800 5803 5805 5807 5808 5809 5811 5814 5816 5818 5819 5820 5821 5821 5821 5822 5822 5823 5823 5823 5823 5822 5820 5819 5818 5817 5817 5817 5816 5814 5813 5812 5810 5809 5808 5807 5806 5805 5804 5803 5802 5800 5799 5797 5796 5795 5794 5793 5792 5791 5790 5789 5788 5787 5786 5784 5783 5782 5780 5778 5776 5774
5727 5732 5737 5742 5748 5753 5756 5759 5762 5765 5768 5771 5773 5775 5777 5779 5782 5783 5785 5788 5790 5792 5794 5796 5798 5800 5801 5803 5804 5806 5809 5812 5814 5816 5817 5817 5817 5817 5818 5818 5819 5819 5819 5819 5819 5817 5816 5815 5814 5814 5814 5813 5812 5811 5809 5808 5807 5806 5805 5803 5803 5802 5800 5799 5798 5796 5795 5794 5793 5792 5791 5790 5789 5787 5786 5785 5784 5783 5782 5780 5779 5777 5776 5774 5772
5720 5725 5729 5734 5741 5747 5751 5754 5756 5758 5761 5765 5769 5772 5774 5776 5778 5779 5781 5783 5786 5788 5789 5791 5793 5795 5797 5799 5801 5803 5805 5808 5810 5811 5813 5813 5813 5813 5813 5814 5814 5815 5815 5815 5815 5814 5813 5812 5811 5811 5811 5810 5809 5808 5807 5806 5805 5803 5802 5801 5800 5799 5798 5797 5795 5794 5792 5791 5790 5789 5789 5787 5786 5785 5784 5783 5782 5780 5779 5778 5776 5775 5774 5772 5770
5712 5717 5723 5729 5735 5740 5744 5747 5750 5752 5755 5759 5763 5766 5769 5771 5773 5775 5777 5778 5781 5783 5785 5786 5789 5791 5793 5795 5797 5799 5801 5803 5805 5807 5808 5809 5810 5810 5810 5810 5810 5811 5811 5812 5812 5811 5810 5809 5808 5807 5808 5807 5806 5805 5804 5803 5802 5801 5800 5798 5797 5797 5796 5794 5793 5792 5790 5789 5788 5787 5786 5785 5784 5782 5781 5780 5779 5778 5777 5776 5774 5773 5771 5770 5768
5705 5710 5716 5723 5728 5732 5736 5740 5744 5747 5750 5753 5757 5760 5763 5765 5767 5770 5772 5773 5776 5778 5780 5782 5784 5786 5788 5790 5792 5795 5797 5799 5800 5802 5804 5805 5806 5806 5806 5806 5806 5806 5807 5808 5808 5807 5807 5806 5805 5804 5804 5804 5803 5802 5801 5800 5800 5798 5797 5796 5795 5794 5793 5792 5791 5789 5788 5787 5786 5785 5784 5782 5781 5780 5779 5778 5777 5776 5775 5774 5772 5770 5769 5767 5765
5698 5703 5709 5716 5720 5724 5727 5732 5736 5739 5743 5746 5750 5753 5755 5758 5760 5763 5766 5769 5772 5774 5776 5779 5781 5782 5784 5786 5788 5790 5792 5794 5796 5798 5799 5800 5801 5802 5802 5801 5801 5801 5802 5803 5804 5803 5803 5802 5801 5800 5800 5801 5800 5799 5798 5797 5797 5796 5795 5793 5792 5792 5791 5790 5789 5787 5786 5785 5783 5782 5781 5780 5779 5777 5777 5776 5775 5774 5773 5771 5770 5768 5766 5764 5762
5689 5695 5702 5708 5713 5718 5722 5725 5728 5732 5735 5739 5742 5745 5747 5750 5753 5757 5761 5765 5769 5771 5773 5775 5777 5779 5780 5782 5783 5785 5787 5789 5791 5793 5795 5796 5796 5797 5797 5796 5796 5797 5798 5799 5799 5799 5799 5798 5798 5797 5797 5797 5797 5796 5795 5794 5794 5793 5792 5791 5790 5789 5788 5787 5786 5785 5784 5783 5781 5780 5779 5778 5776 5775 5774 5774 5773 5772 5771 5769 5767 5765 5763 5761 5759
5681 5687 5694 5700 5706 5711 5715 5719 5724 5728 5731 5734 5737 5738 5741 5744 5748 5752 5756 5761 5765 5768 5771 5773 5774 5775 5777 5778 5779 5781 5783 5785 5787 5789 5790 5792 5792 5792 5791 5791 5792 5793 5794 5794 5795 5795 5795 5795 5794 5793 5793 5794 5793 5792 5791 5791 5790 5790 5789 5788 5787 5786 5786 5785 5784 5783 5782 5780 5779 5777 5776 5776 5774 5772 5772 5771 5770 5769 5768 5767 5765 5763 5761 5759 5757
5672 5679 5686 5692 5698 5703 5707 5713 5719 5724 5728 5731 5734 5736 5737 5739 5742 5746 5751 5755 5760 5764 5766 5768 5770 5771 5773 5774 5775 5777 5779 5781 5782 5784 5785 5787 5787 5786 5786 5787 5787 5788 5789 5790 5790 5791 5791 5791 5791 5789 5789 5790 5790 5789 5788 5787 5787 5786 5785 5784 5783 5783 5782 5782 5781 5780 5779 5778 5777 5775 5774 5773 5772 5770 5769 5769 5768 5767 5766 5764 5763 5761 5759 5757 5754
5664 5671 5678 5684 5690 5695 5700 5707 5713 5717 5720 5724 5727 5732 5735 5735 5736 5740 5745 5749 5753 5757 5760 5763 5766 5767 5768 5770 5771 5774 5775 5776 5777 5779 5781 5782 5782 5781 5781 5781 5782 5783 5784 5785 5787 5787 5787 5788 5787 5786 5786 5786 5786 5786 5785 5784 5783 5782 5782 5781 5780 5780 5779 5778 5777 5777 5776 5776 5774 5773 5772 5770 5769 5768 5767 5766 5765 5764 5763 5761 5760 5758 5757 5754 5752
5657 5664 5671 5677 5683 5688 5694 5700 5706 5709 5712 5715 5719 5726 5730 5732 5734 5737 5740 5743 5748 5752 5755 5758 5760 5762 5764 5765 5767 5769 5770 5771 5772 5774 5776 5777 5777 5776 5776 5776 5778 5781 5782 5782 5783 5783 5783 5784 5783 5783 5782 5782 5782 5782 5781 5780 5779 5778 5778 5777 5777 5777 5776 5775 5774 5774 5773 5773 5771 5770 5769 5768 5767 5766 5764 5763 5762 5761 5760 5758 5757 5755 5753 5751 5749
5652 5658 5664 5670 5677 5682 5688 5693 5698 5702 5705 5709 5713 5719 5724 5728 5730 5733 5736 5740 5743 5747 5750 5753 5755 5757 5759 5760 5762 5763 5764 5765 5767 5768 5770 5772 5772 5771 5771 5773 5777 5780 5779 5779 5779 5778 5778 5779 5779 5779 5779 5778 5778 5778 5777 5776 5775 5775 5774 5774 5774 5773 5772 5771 5771 5771 5770 5769 5768 5767 5766 5765 5763 5762 5761 5760 5759 5757 5756 5755 5753 5751 5750 5748 5745
5646 5652 5658 5664 5670 5675 5681 5686 5691 5696 5700 5704 5708 5713 5718 5721 5725 5728 5731 5734 5738 5741 5744 5747 5750 5752 5753 5755 5756 5757 5758 5760 5762 5763 5765 5767 5767 5766 5767 5770 5773 5775 5775 5775 5774 5774 5774 5775 5774 5775 5775 5774 5774 5774 5773 5772 5771 5771 5770 5770 5770 5769 5767 5767 5768 5767 5766 5765 5765 5764 5763 5761 5760 5759 5757 5756 5755 5754 5753 5751 5749 5748 5746 5744 5742
5640 5646 5652 5657 5663 5669 5674 5680 5685 5690 5696 5701 5704 5707 5711 5715 5718 5722 5725 5727 5731 5734 5738 5741 5744 5746 5748 5749 5750 5751 5752 5755 5757 5758 5760 5761 5761 5761 5762 5765 5767 5769 5770 5770 5769 5769 5770 5770 5770 5771 5771 5770 5770 5769 5769 5768 5767 5767 5767 5767 5766 5765 5764 5764 5764 5763 5762 5762 5761 5760 5759 5758 5757 5755 5754 5753 5752 5751 5749 5748 5746 5744 5742 5741 5739
5634 5640 5646 5650 5656 5663 5668 5674 5679 5685 5690 5694 5697 5700 5704 5708 5712 5716 5719 5721 5724 5728 5731 5734 5738 5740 5741 5742 5744 5746 5747 5749 5751 5753 5754 5756 5756 5756 5758 5760 5761 5763 5764 5763 5764 5765 5766 5766 5766 5766 5766 5766 5766 5765 5764 5764 5763 5763 5763 5762 5761 5761 5760 5760 5760 5759 5758 5758 5757 5757 5756 5755 5753 5752 5751 5750 5748 5747 5746 5744 5742 5741 5739 5737 5735
5627 5634 5639 5645 5651 5657 5663 5668 5673 5678 5683 5686 5689 5693 5698 5702 5706 5710 5713 5715 5718 5721 5724 5727 5730 5733 5735 5736 5738 5740 5742 5744 5746 5748 5749 5750 5750 5750 5752 5755 5755 5756 5757 5759 5760 5762 5762 5761 5761 5761 5761 5762 5761 5760 5759 5759 5759 5759 5759 5758 5757 5757 5756 5756 5756 5755 5754 5754 5754 5753 5752 5751 5750 5749 5748 5746 5745 5743 5742 5740 5739 5737 5735 5733 5731
5621 5628 5633 5639 5645 5651 5657 5662 5667 5671 5675 5679 5683 5687 5692 5696 5700 5704 5706 5709 5712 5714 5717 5719 5722 5725 5728 5730 5732 5735 5737 5739 5741 5743 5744 5745 5745 5745 5747 5749 5749 5749 5751 5754 5756 5757 5757 5756 5755 5755 5755 5756 5756 5755 5754 5754 5754 5754 5754 5753 5753 5753 5752 5752 5751 5751 5750 5750 5750 5750 5749 5748 5747 5745 5744 5743 5741 5740 5738 5737 5735 5733 5731 5730 5728
5615 5622 5628 5633 5639 5645 5650 5655 5660 5665 5669 5673 5677 5682 5686 5690 5694 5697 5700 5703 5705 5707 5709 5712 5714 5718 5722 5724 5727 5730 5732 5734 5737 5739 5740 5740 5741 5741 5741 5743 5743 5743 5745 5748 5749 5751 5752 5751 5750 5749 5749 5750 5750 5749 5748 5749 5749 5749 5749 5748 5748 5748 5748 5748 5747 5746 5746 5746 5746 5745 5745 5744 5743 5741 5740 5739 5737 5736 5734 5733 5731 5729 5727 5725 5723
5609 5616 5622 5628 5634 5639 5644 5649 5654 5659 5663 5667 5671 5676 5680 5684 5688 5691 5694 5696 5697 5700 5702 5705 5708 5712 5716 5718 5721 5724 5727 5730 5732 5734 5736 5736 5736 5736 5736 5737 5737 5738 5740 5742 5743 5744 5744 5745 5744 5743 5743 5744 5744 5743 5743 5744 5744 5744 5744 5744 5744 5744 5744 5743 5742 5742 5742 5742 5741 5741 5740 5739 5738 5737 5735 5734 5733 5731 5730 5728 5727 5725 5723 5721 5719
5605 5612 5618 5623 5629 5634 5639 5644 5648 5653 5657 5661 5665 5670 5674 5678 5682 5685 5687 5689 5691 5693 5696 5699 5703 5706 5709 5713 5716 5719 5722 5724 5726 5729 5731 5731 5732 5732 5732 5732 5733 5734 5735 5737 5737 5737 5737 5738 5738 5738 5737 5737 5737 5737 5738 5738 5738 5738 5739 5739 5739 5739 5739 5738 5737 5737 5737 5737 5736 5735 5735 5734 5734 5733 5731 5729 5728 5727 5726 5724 5723 5721 5719 5717 5715
5603 5609 5615 5620 5624 5629 5634 5639 5643 5646 5650 5655 5659 5664 5668 5672 5675 5678 5681 5682 5684 5687 5691 5694 5698 5701 5704 5708 5711 5714 5716 5718 5720 5722 5725 5726 5727 5727 5727 5728 5728 5729 5729 5730 5731 5731 5730 5731 5732 5732 5731 5731 5731 5732 5733 5734 5734 5734 5734 5734 5734 5734 5733 5733 5733 5733 5732 5731 5730 5730 5730 5730 5729 5728 5726 5725 5724 5722 5721 5720 5718 5716 5715 5713 5711
5601 5606 5611 5616 5620 5625 5629 5633 5637 5641 5645 5649 5654 5658 5663 5666 5669 5672 5674 5677 5679 5683 5686 5689 5693 5696 5700 5703 5706 5708 5710 5712 5715 5718 5720 5720 5720 5720 5721 5722 5722 5722 5723 5724 5724 5724 5724 5725 5726 5726 5726 5726 5726 5728 5729 5729 5729 5729 5729 5729 5729 5728 5728 5728 5728 5727 5726 5725 5724 5724 5724 5724 5724 5723 5722 5720 5719 5718 5717 5715 5714 5712 5710 5708 5706
5598 5603 5608 5612 5616 5620 5624 5628 5632 5636 5640 5644 5648 5653 5657 5660 5663 5666 5668 5671 5674 5678 5681 5684 5688 5692 5695 5698 5700 5702 5705 5709 5713 5715 5714 5713 5712 5713 5714 5715 5715 5716 5717 5717 5717 5717 5719 5720 5721 5721 5721 5721 5722 5724 5725 5725 5724 5724 5724 5724 5723 5723 5722 5722 5722 5722 5720 5719 5718 5719 5719 5718 5718 5718 5717 5715 5714 5713 5712 5710 5709 5707 5705 5703 5701
5595 5599 5604 5608 5612 5616 5620 5623 5626 5630 5635 5640 5644 5648 5651 5654 5657 5660 5663 5666 5669 5673 5676 5679 5683 5686 5690 5693 5695 5697 5701 5705 5707 5707 5706 5706 5707 5708 5708 5708 5709 5710 5711 5711 5711 5712 5714 5716 5716 5717 5717 5717 5719 5720 5721 5720 5718 5718 5719 5718 5718 5718 5717 5717 5717 5716 5714 5713 5712 5712 5712 5713 5712 5712 5711 5709 5708 5707 5707 5705 5704 5702 5700 5698 5696
5592 5596 5601 5605 5609 5612 5616 5619 5622 5626 5630 5635 5639 5642 5646 5649 5652 5655 5658 5661 5664 5667 5670 5673 5677 5681 5685 5687 5689 5691 5694 5697 5699 5700 5701 5702 5702 5702 5702 5703 5703 5704 5705 5706 5706 5707 5708 5710 5711 5712 5712 5713 5714 5716 5716 5714 5713 5712 5713 5713 5713 5713 5712 5711 5711 5709 5708 5707 5707 5706 5706 5706 5706 5705 5704 5703 5702 5702 5701 5700 5698 5696 5695 5693 5691
5589 5593 5598 5602 5605 5608 5611 5614 5618 5621 5625 5629 5633 5637 5640 5643 5646 5650 5653 5656 5659 5662 5664 5667 5672 5676 5679 5681 5683 5685 5688 5691 5693 5694 5694 5695 5695 5696 5697 5697 5696 5696 5699 5700 5700 5701 5703 5705 5706 5707 5707 5708 5709 5710 5709 5709 5708 5707 5707 5707 5707 5707 5707 5706 5704 5702 5702 5701 5701 5700 5700 5700 5699 5698 5698 5697 5696 5695 5695 5693 5692 5690 5689 5687 5686
5586 5590 5594 5597 5600 5603 5606 5610 5613 5617 5620 5624 5627 5631 5634 5638 5641 5644 5647 5650 5654 5656 5659 5663 5667 5670 5673 5675 5677 5679 5682 5684 5686 5686 5687 5688 5689 5689 5690 5689 5689 5690 5692 5694 5695 5697 5699 5700 5701 5701 5702 5702 5703 5704 5703 5702 5702 5701 5701 5701 5702 5702 5701 5699 5697 5696 5697 5696 5695 5694 5694 5693 5693 5692 5691 5690 5690 5689 5688 5687 5686 5684 5683 5681 5680
5583 5586 5589 5592 5595 5598 5602 5605 5609 5612 5615 5618 5622 5625 5629 5632 5635 5639 5642 5645 5649 5652 5655 5659 5663 5665 5667 5670 5671 5673 5675 5677 5678 5679 5681 5681 5680 5681 5682 5683 5683 5685 5687 5689 5691 5693 5694 5694 5695 5696 5696 5697 5697 5697 5697 5696 5696 5695 5695 5696 5696 5695 5695 5693 5692 5692 5691 5690 5689 5688 5688 5687 5686 5686 5685 5684 5684 5683 5682 5681 5680 5678 5677 5675 5673
5580 5583 5586 5588 5591 5595 5598 5602 5605 5608 5611 5614 5617 5620 5623 5626 5630 5634 5637 5641 5644 5647 5651 5655 5658 5660 5662 5663 5664 5666 5669 5671 5672 5673 5674 5673 5673 5674 5676 5677 5678 5680 5682 5684 5685 5687 5688 5688 5689 5690 5690 5691 5691 5691 5691 5690 5689 5689 5689 5690 5689 5689 5688 5688 5687 5686 5685 5684 5684 5683 5682 5681 5681 5680 5679 5678 5678 5677 5676 5675 5673 5672 5671 5669 5667
5578 5581 5583 5586 5588 5592 5595 5598 5601 5604 5607 5609 5612 5615 5618 5621 5625 5630 5634 5637 5640 5643 5647 5650 5653 5655 5656 5657 5658 5660 5663 5665 5666 5666 5666 5666 5668 5669 5670 5671 5673 5674 5675 5677 5678 5680 5681 5681 5682 5683 5684 5684 5685 5685 5684 5684 5683 5682 5683 5683 5683 5683 5683 5682 5681 5680 5679 5679 5678 5677 5676 5676 5676 5675 5673 5672 5671 5670 5669 5668 5667 5666 5664 5662 5660
5574 5577 5580 5582 5585 5588 5590 5593 5596 5599 5602 5605 5607 5610 5613 5617 5622 5626 5629 5632 5635 5639 5642 5645 5647 5649 5650 5651 5652 5654 5657 5659 5658 5658 5659 5661 5664 5665 5665 5666 5667 5667 5668 5670 5672 5673 5674 5675 5677 5677 5677 5678 5678 5678 5677 5677 5677 5676 5676 5676 5676 5676 5676 5676 5674 5674 5673 5673 5672 5672 5671 5670 5669 5668 5667 5666 5665 5663 5662 5661 5660 5659 5657 5655 5654
5571 5573 5576 5578 5580 5583 5585 5588 5591 5594 5597 5600 5603 5607 5611 5614 5618 5621 5624 5626 5629 5632 5634 5636 5638 5640 5641 5643 5646 5649 5650 5651 5651 5651 5654 5657 5660 5661 5661 5661 5661 5661 5662 5664 5666 5667 5668 5670 5671 5671 5671 5671 5672 5671 5671 5670 5670 5669 5669 5670 5670 5669 5669 5669 5668 5667 5667 5666 5666 5666 5665 5663 5663 5662 5661 5660 5659 5657 5655 5653 5651 5650 5649 5648 5647
5570 5572 5573 5575 5577 5579 5582 5585 5588 5591 5594 5598 5601 5605 5608 5611 5614 5617 5619 5621 5623 5625 5626 5628 5631 5632 5633 5636 5639 5641 5642 5643 5645 5647 5649 5652 5654 5655 5656 5656 5656 5656 5658 5659 5660 5661 5662 5663 5664 5664 5665 5665 5666 5666 5665 5664 5663 5663 5663 5663 5663 5663 5663 5662 5661 5661 5660 5659 5659 5659 5658 5657 5656 5655 5654 5654 5653 5651 5648 5645 5644 5642 5642 5641 5639
5569 5570 5572 5573 5575 5577 5580 5583 5586 5590 5593 5596 5599 5602 5605 5607 5610 5612 5613 5615 5617 5619 5620 5622 5624 5626 5627 5629 5632 5634 5634 5636 5639 5642 5644 5646 5648 5649 5650 5650 5650 5651 5652 5653 5654 5655 5656 5657 5658 5658 5658 5659 5660 5660 5659 5658 5658 5657 5656 5656 5656 5656 5656 5655 5654 5654 5653 5652 5651 5651 5650 5649 5648 5647 5647 5647 5646 5644 5641 5639 5637 5635 5634 5633 5631
5568 5569 5570 5572 5574 5577 5579 5582 5585 5588 5591 5594 5597 5599 5601 5603 5605 5607 5609 5610 5612 5613 5615 5617 5619 5621 5622 5624 5627 5628 5628 5631 5635 5638 5639 5640 5642 5644 5645 5645 5644 5644 5644 5645 5647 5649 5651 5652 5652 5652 5652 5653 5653 5653 5652 5652 5651 5650 5650 5650 5650 5650 5649 5648 5647 5646 5645 5644 5643 5642 5641 5641 5641 5640 5639 5638 5637 5636 5633 5631 5629 5628 5626 5625 5624
5568 5569 5570 5571 5572 5575 5577 5580 5583 5586 5589 5592 5594 5596 5598 5600 5602 5603 5605 5606 5608 5609 5611 5613 5616 5617 5619 5621 5622 5624 5625 5629 5632 5634 5634 5635 5637 5638 5639 5639 5638 5638 5639 5640 5641 5644 5645 5645 5645 5645 5645 5645 5645 5645 5645 5644 5643 5643 5643 5643 5643 5643 5642 5641 5640 5639 5638 5636 5635 5633 5633 5633 5633 5632 5631 5629 5628 5627 5626 5624 5622 5620 5619 5618 5617
5569 5570 5571 5571 5572 5574 5576 5579 5582 5584 5587 5589 5590 5592 5594 5596 5597 5599 5601 5602 5604 5605 5607 5609 5611 5613 5615 5617 5618 5620 5622 5624 5627 5628 5629 5630 5631 5632 5633 5633 5633 5633 5634 5635 5636 5637 5637 5637 5637 5637 5637 5637 5637 5637 5636 5636 5636 5636 5636 5636 5636 5635 5635 5634 5632 5630 5628 5626 5625 5625 5624 5623 5622 5622 5621 5620 5619 5618 5617 5616 5615 5613 5612 5611 5611
5569 5570 5571 5571 5573 5574 5576 5578 5580 5582 5584 5585 5586 5588 5590 5591 5593 5594 5596 5598 5599 5601 5602 5604 5606 5608 5610 5611 5613 5615 5616 5618 5620 5622 5623 5625 5626 5626 5627 5628 5628 5628 5628 5629 5630 5629 5629 5629 5629 5629 5629 5629 5629 5629 5629 5629 5629 5629 5629 5629 5629 5629 5628 5627 5625 5621 5618 5618 5617 5616 5614 5614 5614 5614 5613 5611 5610 5609 5609 5608 5607 5606 5606 5606 5604
5567 5568 5569 5570 5572 5572 5574 5575 5577 5578 5580 5582 5583 5585 5586 5588 5589 5590 5592 5593 5594 5596 5597 5599 5600 5602 5604 5605 5607 5609 5610 5612 5614 5615 5617 5618 5619 5620 5620 5621 5622 5622 5621 5622 5622 5622 5621 5621 5621 5621 5621 5622 5622 5622 5622 5622 5622 5622 5622 5622 5622 5621 5620 5620 5618 5614 5611 5610 5609 5606 5605 5606 5607 5607 5604 5602 5602 5602 5602 5601 5601 5601 5601 5599 5598
5565 5566 5567 5568 5569 5570 5571 5573 5574 5575 5576 5578 5579 5581 5582 5584 5585 5587 5588 5589 5590 5591 5592 5593 5595 5596 5598 5599 5601 5603 5604 5605 5607 5608 5609 5610 5611 5611 5612 5613 5614 5614 5614 5614 5614 5614 5614 5614 5614 5614 5614 5614 5614 5615 5615 5615 5615 5615 5616 5615 5615 5613 5612 5610 5609 5608 5607 5604 5602 5600 5600 5601 5601 5599 5596 5595 5596 5596 5596 5596 5596 5596 5595 5593 5592
5563 5563 5564 5565 5566 5567 5568 5569 5570 5571 5573 5574 5575 5577 5578 5580 5581 5583 5584 5585 5585 5586 5587 5588 5589 5591 5592 5594 5595 5596 5597 5598 5600 5601 5601 5602 5603 5603 5604 5605 5605 5605 5605 5605 5606 5606 5607 5607 5607 5607 5607 5607 5607 5608 5608 5608 5608 5608 5608 5608 5607 5607 5606 5604 5603 5603 5602 5599 5596 5595 5595 5595 5593 5591 5590 5590 5590 5591 5591 5590 5590 5590 5588 5587 5586
5561 5561 5561 5562 5563 5564 5565 5566 5567 5568 5569 5570 5571 5573 5574 5575 5576 5577 5578 5579 5580 5581 5582 5583 5584 5585 5586 5587 5588 5589 5590 5591 5592 5593 5594 5594 5595 5596 5596 5597 5598 5598 5598 5598 5598 5598 5599 5599 5600 5600 5600 5600 5600 5601 5601 5601 5601 5601 5601 5600 5599 5599 5599 5599 5598 5597 5596 5594 5593 5591 5590 5588 5586 5584 5583 5584 5585 5585 5584 5584 5583 5583 5582 5581 5580
5558 5559 5559 5560 5560 5561 5561 5562 5563 5564 5565 5566 5567 5568 5569 5571 5572 5572 5573 5574 5575 5575 5576 5577 5578 5579 5579 5580 5581 5582 5583 5584 5585 5585 5586 5586 5587 5588 5588 5589 5590 5591 5591 5591 5590 5590 5591 5591 5592 5592 5593 5593 5593 5594 5594 5593 5593 5593 5593 5592 5592 5591 5591 5591 5590 5589 5589 5588 5587 5585 5583 5581 5579 5577 5577 5578 5578 5578 5578 5578 5577 5576 5575 5574 5573
5556 5556 5557 5557 5557 5558 5558 5559 5560 5560 5561 5562 5562 5563 5564 5565 5566 5567 5567 5568 5569 5569 5570 5571 5572 5572 5573 5573 5574 5575 5576 5577 5577 5578 5578 5578 5579 5580 5581 5581 5582 5583 5583 5583 5583 5583 5584 5584 5584 5585 5585 5586 5586 5586 5586 5586 5586 5585 5585 5585 5584 5584 5583 5582 5582 5581 5580 5580 5578 5577 5576 5575 5573 5572 5572 5572 5572 5572 5572 5572 5571 5570 5569 5568 5567
5553 5553 5553 5554 5554 5555 5555 5556 5556 5557 5557 5558 5558 5559 5559 5560 5560 5561 5562 5562 5563 5564 5564 5565 5566 5566 5567 5567 5568 5568 5569 5570 5570 5571 5571 5571 5572 5572 5573 5573 5574 5575 5575 5576 5576 5576 5576 5577 5577 5577 5578 5578 5578 5578 5578 5577 5577 5577 5577 5577 5577 5576 5575 5574 5573 5573 5572 5571 5571 5570 5570 5569 5568 5567 5567 5567 5566 5566 5566 5565 5564 5563 5562 5561 5560